Regional Weather Roundup
Issued by NWS

Home | Current Version | Previous Version | Graphics & Text | Print | Product List | Glossary On
Versions: 1 2 3 4 5 6 7 8 9 10 11 12 13 14 15 16 17 18 19 20 21 22 23 24 25 26 27 28 29 30 31 32 33 34 35 36 37 38 39 40 41 42 43 44 45 46 47 48 49 50
190
ASUS43 KLSX 262310
RWRMO

WEATHER SUMMARY FOR MISSOURI
NATIONAL WEATHER SERVICE SPRINGFIELD MO
500 PM CST SUN FEB 26 2017

NOTE: "FAIR" INDICATES FEW OR NO CLOUDS BELOW 12,000 FEET WITH NO
       SIGNIFICANT WEATHER AND/OR OBSTRUCTIONS TO VISIBILITY.
       CURRENT SKY AND/OR WEATHER CONDITIONS ARE NOT AVAILABLE FOR
       CHILLICOTHE AND FARMINGTON.

MOZ001>031-035>038-043-044-053-054-270000-
...NORTHERN AND WESTERN MISSOURI...

CITY           SKY/WX    TMP DP  RH WIND       PRES   REMARKS
KANSAS CTY INT MOSUNNY   50  24  36 S7        29.94S
KANSAS C DTWN  SUNNY     50  26  39 S8        29.95R
LEE`S SUMMIT   SUNNY     48  31  51 S8        29.96S
ST JOSEPH      MOSUNNY   51  25  36 S10       29.93S
CHILLICOTHE      N/A     50  24  36 S10       29.97R
KIRKSVILLE     CLOUDY    48  22  35 SW9       29.97R

$$
MOZ066>068-077>081-088>096-101>105-270000-
...SOUTHWEST MISSOURI...

CITY           SKY/WX    TMP DP  RH WIND       PRES   REMARKS
SPRINGFIELD    CLOUDY    42  33  70 SE13      29.97S
JOPLIN         CLOUDY    43  33  68 E9        29.96S
BRANSON        CLOUDY    46  25  42 E10       29.98R

$$
MOZ032>034-039>042-045>050-055>058-069>072-270000-
...CENTRAL MISSOURI...

CITY           SKY/WX    TMP DP  RH WIND       PRES   REMARKS
COLUMBIA       CLOUDY    43  34  70 S12       30.02S
JEFFERSON CITY CLOUDY    43  35  73 S8        30.04F
ROLLA          LGT RAIN  38  34  85 SE10G17   30.02F
SEDALIA        MOSUNNY   44  35  70 S13       30.01S
WHITEMAN AFB   PTSUNNY   43  38  83 S10       29.99R
WARRENSBURG    MOSUNNY   43  34  70 SE10      29.99S
OSAGE BEACH    LGT RAIN  39  36  87 SE6       30.04S

$$
MOZ051-052-059>065-270000-
...EAST CENTRAL MISSOURI...

CITY           SKY/WX    TMP DP  RH WIND       PRES   REMARKS
ST LOUIS INTL  CLOUDY    47  25  42 SW16G23   30.08S
SPIRIT OF STL  CLOUDY    45  30  55 S6        30.07S
ST CHARLES     CLOUDY    47  24  40 S18       30.07R

$$
MOZ072>076-082>087-097>100-106>115-270000-
...SOUTH CENTRAL AND SOUTHEAST MISSOURI...

CITY           SKY/WX    TMP DP  RH WIND       PRES   REMARKS
CAPE GIRARDEAU CLOUDY    49  26  41 SE5       30.11F
FARMINGTON     LGT RAIN  42  30  62 S6        30.08F
POPLAR BLUFF   CLOUDY    51  26  37 E7        30.07F
WEST PLAINS    CLOUDY    48  23  37 SE6       30.02F

$$




USA.gov is the U.S. government's official web portal to all federal, state and local government web resources and services.